TimeCST,TemperatureF,Dew PointF,Humidity,Sea Level PressureIn,VisibilityMPH,Wind Direction,Wind SpeedMPH,Gust SpeedMPH,PrecipitationIn,Events,Conditions,WindDirDegrees,DateUTC
12:53 AM,72.0,71.1,97,30.10,10.0,SW,3.5,-,N/A,,Partly Cloudy,220,2012-12-05 06:53:00
1:51 AM,69.8,69.8,100,30.12,9.0,NW,18.4,23.0,N/A,Thunderstorm,Mostly Cloudy,320,2012-12-05 07:51:00
1:53 AM,69.1,66.9,93,30.12,9.0,NW,12.7,23.0,0.00,Rain-Thunderstorm,Light Thunderstorms and Rain,320,2012-12-05 07:53:00
2:08 AM,66.2,66.2,100,30.11,1.8,ESE,9.2,20.7,0.20,Rain-Thunderstorm,Heavy Thunderstorms and Rain,110,2012-12-05 08:08:00
2:15 AM,68.0,66.2,94,30.12,3.0,Calm,Calm,-,0.30,Rain-Thunderstorm,Light Thunderstorms and Rain,0,2012-12-05 08:15:00
2:24 AM,68.0,66.2,94,30.12,10.0,Calm,Calm,-,0.30,Rain-Thunderstorm,Light Thunderstorms and Rain,0,2012-12-05 08:24:00
2:53 AM,68.0,66.9,96,30.12,10.0,SSW,4.6,-,0.30,Thunderstorm,Scattered Clouds,200,2012-12-05 08:53:00
3:14 AM,66.2,66.2,100,30.10,10.0,ENE,3.5,-,N/A,,Scattered Clouds,70,2012-12-05 09:14:00
3:53 AM,66.9,66.9,100,30.11,10.0,Calm,Calm,-,N/A,,Mostly Cloudy,0,2012-12-05 09:53:00
4:41 AM,66.2,66.2,100,30.11,10.0,NNW,3.5,-,N/A,,Overcast,330,2012-12-05 10:41:00
4:53 AM,66.9,66.9,100,30.11,10.0,NNW,6.9,-,N/A,,Overcast,330,2012-12-05 10:53:00
5:00 AM,66.2,66.2,100,30.11,10.0,NNW,8.1,-,N/A,,Overcast,330,2012-12-05 11:00:00
5:25 AM,66.2,66.2,100,30.12,10.0,NNW,5.8,-,N/A,,Scattered Clouds,340,2012-12-05 11:25:00
5:34 AM,68.0,66.2,94,30.12,10.0,NNW,4.6,-,N/A,,Mostly Cloudy,340,2012-12-05 11:34:00
5:41 AM,68.0,66.2,94,30.13,10.0,North,4.6,-,N/A,,Mostly Cloudy,350,2012-12-05 11:41:00
5:53 AM,68.0,66.9,96,30.13,10.0,NNW,3.5,-,N/A,,Overcast,340,2012-12-05 11:53:00
6:09 AM,68.0,66.2,94,30.14,10.0,NNW,4.6,-,N/A,,Overcast,330,2012-12-05 12:09:00
6:53 AM,68.0,66.9,96,30.14,10.0,NW,9.2,-,N/A,,Mostly Cloudy,320,2012-12-05 12:53:00
8:53 AM,69.1,66.9,93,30.18,9.0,NNW,11.5,-,N/A,,Overcast,340,2012-12-05 14:53:00
9:09 AM,69.8,66.2,88,30.18,10.0,NNW,12.7,-,N/A,,Mostly Cloudy,340,2012-12-05 15:09:00
9:17 AM,69.8,66.2,88,30.18,10.0,NNW,11.5,-,N/A,,Mostly Cloudy,340,2012-12-05 15:17:00
9:48 AM,69.8,66.2,88,30.19,10.0,NNW,11.5,-,N/A,,Overcast,330,2012-12-05 15:48:00
9:53 AM,70.0,66.0,87,30.18,10.0,NNW,11.5,-,N/A,,Mostly Cloudy,330,2012-12-05 15:53:00
10:09 AM,71.6,64.4,78,30.19,10.0,NNW,11.5,-,N/A,,Scattered Clouds,330,2012-12-05 16:09:00
10:27 AM,73.4,66.2,78,30.18,10.0,North,8.1,-,N/A,,Mostly Cloudy,350,2012-12-05 16:27:00
10:53 AM,73.9,66.0,76,30.18,10.0,North,9.2,-,N/A,,Scattered Clouds,360,2012-12-05 16:53:00
11:36 AM,73.4,66.2,78,30.16,10.0,North,10.4,-,N/A,,Mostly Cloudy,350,2012-12-05 17:36:00
11:53 AM,73.0,64.9,76,30.15,10.0,North,9.2,-,N/A,,Overcast,360,2012-12-05 17:53:00
12:53 PM,75.9,64.9,69,30.12,10.0,NNW,8.1,-,N/A,,Overcast,340,2012-12-05 18:53:00
1:18 PM,77.0,64.4,65,30.10,10.0,NNW,11.5,-,N/A,,Scattered Clouds,330,2012-12-05 19:18:00
1:53 PM,78.1,64.0,62,30.08,10.0,NW,11.5,18.4,N/A,,Partly Cloudy,320,2012-12-05 19:53:00
2:53 PM,77.0,62.1,60,30.06,10.0,NW,12.7,-,N/A,,Scattered Clouds,320,2012-12-05 20:53:00
3:53 PM,77.0,61.0,58,30.05,9.0,North,9.2,-,N/A,,Scattered Clouds,350,2012-12-05 21:53:00
4:53 PM,73.0,63.0,71,30.05,10.0,NE,8.1,-,N/A,,Clear,50,2012-12-05 22:53:00
5:53 PM,68.0,61.0,78,30.05,10.0,NE,8.1,-,N/A,,Clear,50,2012-12-05 23:53:00
6:53 PM,66.0,61.0,84,30.06,10.0,ENE,4.6,-,N/A,,Clear,60,2012-12-06 00:53:00
7:53 PM,64.0,60.1,87,30.07,10.0,ENE,4.6,-,N/A,,Clear,70,2012-12-06 01:53:00
8:53 PM,62.1,60.1,93,30.07,10.0,ENE,4.6,-,N/A,,Clear,60,2012-12-06 02:53:00
9:53 PM,63.0,60.1,90,30.07,10.0,ENE,4.6,-,N/A,,Clear,60,2012-12-06 03:53:00
10:53 PM,60.1,59.0,96,30.06,10.0,Calm,Calm,-,N/A,,Clear,0,2012-12-06 04:53:00
11:53 PM,57.9,57.0,97,30.04,9.0,Calm,Calm,-,N/A,,Clear,0,2012-12-06 05:53:00